Temperature
21 21 20 19 19 19 19 19 18 18 18 18 18 18 17 17 17 17 16 16 16 16 16 15 15 15 15 15 15 15 15 16 16 16 16 17 17 17 16 16 16 16 16
21 20 20 19 19 19 18 18 18 18 18 18 18 18 17 17 17 17 16 16 16 16 16 15 15 15 15 15 15 15 15 16 16 16 16 17 17 17 17 17 16 16 16
21 20 20 19 19 18 19 18 18 18 18 18 18 17 17 17 17 17 16 16 16 15 15 15 15 15 15 15 15 15 15 16 16 16 16 16 16 16 17 16 16 16 16
22 21 20 19 19 18 18 18 18 18 18 17 17 17 17 17 17 17 16 16 16 15 15 15 15 15 15 15 15 15 15 15 15 16 16 16 16 16 16 16 16 16 16
22 21 20 19 19 18 18 18 18 18 18 17 17 17 17 17 17 17 17 16 16 15 15 15 15 15 14 14 14 15 15 15 15 15 16 16 16 16 17 17 16 16 16
22 21 20 19 19 18 18 18 18 18 18 18 17 17 17 17 17 17 17 16 16 16 15 15 15 15 14 14 14 14 14 14 15 15 15 15 16 16 16 16 17 16 16
23 21 20 19 19 19 18 18 18 18 18 18 18 18 17 17 17 17 17 17 16 16 16 15 15 15 14 14 14 14 14 14 14 15 15 15 15 15 15 15 16 16 16
23 22 21 20 19 19 18 18 18 18 18 18 18 18 18 17 17 17 17 17 17 17 16 16 16 15 15 14 14 14 14 14 14 14 14 14 14 15 15 15 15 15 16
24 23 21 20 19 19 19 18 18 18 18 18 18 18 18 18 17 17 17 17 17 17 17 16 16 15 15 14 14 14 14 14 14 14 14 14 14 14 14 15 15 15 15
24 23 22 21 20 19 19 19 18 18 18 18 18 18 18 18 18 17 17 17 17 17 17 16 16 15 15 15 15 14 14 14 14 14 14 14 14 14 14 14 14 14 14
25 24 23 22 21 20 19 19 18 18 18 18 18 18 18 18 18 18 18 17 17 17 17 16 16 15 15 15 15 15 14 14 14 14 14 14 14 14 14 14 14 14 14
25 24 23 22 22 21 20 19 19 19 18 18 18 18 18 18 18 18 18 18 17 17 17 17 16 16 16 15 15 15 15 14 14 14 14 14 14 14 14 14 14 14 14
25 25 24 23 22 22 21 20 20 19 19 19 19 18 18 18 18 18 18 18 18 17 17 17 17 16 16 16 16 16 15 15 15 15 14 14 14 14 14 14 14 14 14
25 25 24 23 23 22 22 21 21 20 20 19 19 19 18 18 18 18 18 18 18 18 17 17 17 17 16 16 16 16 16 15 15 15 15 15 14 14 14 14 14 14 14
25 24 24 23 23 23 22 22 21 21 20 20 19 19 19 18 18 18 17 17 17 17 17 17 17 17 16 16 16 16 16 16 16 15 15 15 15 15 14 14 14 13 13
24 23 23 22 22 22 22 22 21 21 21 20 20 19 19 18 18 18 17 17 17 17 17 17 17 17 16 16 16 16 16 15 15 15 15 15 15 15 15 15 14 14 14
22 22 21 21 21 21 21 21 21 21 21 20 20 19 19 18 18 17 17 17 17 17 16 16 16 16 17 16 16 16 16 16 15 15 15 15 14 15 15 15 15 14 14
21 20 20 20 20 20 20 20 20 20 20 19 19 19 18 18 17 17 17 17 16 16 16 16 16 16 16 16 16 16 16 15 16 15 15 15 15 15 14 14 14 14 14
19 19 19 18 19 19 19 19 19 19 18 18 18 18 17 17 17 17 16 16 16 16 16 16 15 15 16 15 15 15 15 15 15 15 15 15 14 14 14 14 14 13 14
17 17 17 17 17 17 18 18 17 17 17 17 16 16 16 16 16 16 16 15 15 15 15 15 15 15 15 15 14 14 14 14 14 14 14 14 14 14 14 13 13 13 13
16 16 16 16 16 16 16 16 16 16 15 15 15 15 15 15 15 15 14 15 15 15 14 14 14 14 14 14 14 14 13 13 13 13 13 13 13 13 13 13 13 13 13
15 15 15 14 15 15 15 15 14 14 14 14 14 14 14 14 14 14 14 14 14 14 14 14 14 14 13 13 13 13 13 13 12 12 12 12 12 12 12 12 13 13 12
14 14 14 13 13 13 14 13 13 13 13 13 13 13 13 13 13 13 13 13 13 13 13 13 13 13 13 12 12 12 12 12 11 11 11 11 11 11 12 12 12 12 12
14 14 13 13 12 12 12 12 12 12 12 12 12 12 13 13 12 12 12 12 12 12 12 12 12 12 12 12 11 11 11 11 11 11 10 10 11 11 11 11 11 11 11
14 13 13 12 12 12 12 12 12 12 12 12 12 12 12 12 12 12 12 12 12 12 11 11 11 11 11 10 10 10 10 10 10 9 9 10 10 9 10 10 10 11 11
13 13 12 12 12 12 11 11 11 11 11 11 12 12 12 12 12 12 12 12 12 12 11 11 11 10 10 10 9 9 9 9 9 9 9 9 9 9 9 9 10 10 10
Wind_Speed
12 12 13 12 13 11 11 11 11 9 8 6 5 5 5 4 5 6 8 6 4 4 3 4 1 2 5 4 4 3 3 1 1 3 2 3 3 3 2 1 2 1 1
13 14 14 13 14 13 12 11 11 11 9 6 5 4 5 4 5 5 7 7 5 4 3 2 1 3 4 3 2 2 3 2 2 2 3 1 2 1 3 2 2 2 2
15 15 14 15 14 13 14 12 11 11 10 9 6 5 4 2 4 7 5 5 6 4 3 2 2 1 1 3 1 3 3 3 2 3 3 3 3 1 2 2 3 2 1
13 14 14 14 14 14 14 13 12 11 10 9 8 9 7 6 6 6 6 6 6 5 6 4 2 1 2 3 1 4 3 2 3 1 2 2 2 2 1 1 3 3 2
14 15 15 14 14 14 14 14 13 11 11 10 8 8 7 6 5 6 8 7 6 6 6 6 4 2 0 3 4 3 3 3 4 4 2 1 1 3 2 0 1 2 3
14 15 15 14 13 14 13 14 13 12 11 10 9 8 7 6 6 7 8 6 6 6 6 6 5 3 2 4 2 1 0 2 3 4 4 3 2 2 2 2 2 1 2
13 15 15 15 14 14 14 15 15 13 12 12 10 9 7 6 5 6 7 7 6 6 8 6 5 4 3 3 2 2 0 1 1 2 4 4 4 3 3 3 4 3 1
13 15 16 15 15 15 15 15 15 13 13 12 10 9 8 6 6 7 5 6 5 6 9 7 6 5 5 5 4 3 4 3 1 3 1 3 4 3 3 2 3 4 4
13 14 16 16 15 15 14 15 14 13 13 13 10 9 9 8 7 7 6 5 4 6 9 8 7 6 5 4 4 4 3 3 3 4 3 3 3 2 2 2 2 2 4
13 14 15 15 15 14 14 14 14 13 12 12 12 12 10 8 6 6 7 6 6 5 8 8 8 7 7 6 5 5 5 4 4 4 2 2 4 3 2 2 2 2 3
13 13 14 15 15 15 14 13 14 13 12 12 11 10 11 10 8 7 7 6 5 6 7 8 7 7 7 7 7 6 5 6 6 5 5 5 4 3 4 3 3 3 3
11 13 14 14 14 15 15 14 13 14 13 12 11 10 9 10 10 10 8 8 7 7 8 8 8 8 8 8 8 8 7 7 7 7 6 5 6 6 5 4 5 4 4
10 12 13 13 13 13 14 15 15 15 14 13 12 11 11 11 10 10 9 9 9 9 9 9 9 9 8 8 9 8 8 7 7 7 7 7 7 6 5 5 5 5 5
7 8 9 10 11 11 11 12 14 14 14 14 13 12 12 11 11 10 10 10 10 10 9 10 10 9 9 8 9 9 9 8 8 7 7 7 7 8 7 7 7 7 6
6 6 7 6 7 9 9 10 10 10 11 11 12 12 12 11 10 10 10 10 11 12 10 9 9 9 9 10 10 9 10 9 9 8 8 9 10 11 9 9 7 6 6
5 4 5 5 4 4 6 6 6 6 7 7 8 9 10 10 10 9 9 9 10 9 9 9 9 10 11 12 14 11 9 8 9 9 9 10 11 13 15 15 13 10 9
7 6 5 5 3 3 3 4 4 4 5 5 5 5 7 8 8 9 8 9 9 8 8 8 9 9 9 9 10 11 7 7 7 8 8 10 12 11 11 14 17 17 18
9 8 7 7 6 6 5 5 4 4 3 3 2 2 3 5 6 6 6 5 5 6 6 6 7 7 9 10 11 11 9 9 9 9 9 9 11 13 10 10 11 12 14
12 11 11 11 10 10 9 8 7 7 8 6 6 5 3 0 2 3 4 4 4 4 4 4 5 7 7 9 10 10 7 8 10 10 11 11 11 15 15 12 12 12 11
12 12 13 14 13 11 11 11 10 10 9 8 8 8 8 7 4 3 1 0 1 3 4 5 5 6 6 7 9 11 7 8 8 9 11 14 14 15 14 11 12 14 13
13 13 13 13 13 12 12 12 12 11 9 8 8 8 8 6 6 5 3 2 2 2 3 4 5 5 5 6 8 11 7 7 8 8 8 6 7 9 11 10 11 15 13
13 13 13 13 12 12 12 12 12 10 9 9 9 8 8 6 5 4 3 3 3 3 4 4 5 4 3 3 4 8 10 8 7 8 8 6 9 10 12 11 14 17 14
12 12 12 12 11 11 11 11 9 8 9 9 8 7 5 4 4 4 3 3 2 3 4 4 4 4 3 3 3 2 6 9 8 9 11 13 15 15 12 15 17 14 11
12 11 11 11 10 10 10 9 8 7 7 6 4 3 4 4 4 3 4 4 4 4 4 5 5 5 4 5 5 5 5 7 7 8 11 14 16 15 15 15 13 11 11
11 10 10 9 9 9 9 9 8 8 7 6 5 4 3 3 2 2 2 2 1 0 2 3 3 4 4 4 4 4 5 6 7 8 8 9 10 9 9 9 9 9 9
10 9 9 9 8 8 8 7 7 8 7 7 7 6 5 4 4 3 3 2 3 5 6 6 4 3 3 4 6 7 9 10 9 6 9 10 10 11 10 10 9 9 9
Wind_Direction
181 167 167 167 163 165 159 156 152 149 148 148 155 152 156 160 138 135 139 145 131 106 12 81 111 53 78 52 35 5 302 220 20 309 251 187 184 150 129 95 9 61 172
179 171 171 171 171 169 162 158 157 160 161 159 162 160 155 173 152 133 143 157 151 163 151 80 141 77 107 80 45 32 336 348 85 328 307 187 142 246 130 142 139 46 15
180 178 178 174 175 171 167 167 163 163 166 161 165 161 150 195 150 138 160 170 163 156 78 94 51 28 128 115 55 16 13 351 353 57 5 5 43 180 131 121 99 91 27
178 175 178 176 178 175 172 164 163 164 164 170 176 173 179 193 172 163 161 168 176 173 154 155 109 355 47 106 95 81 339 325 332 120 109 89 63 345 35 199 134 163 147
176 176 181 182 180 176 173 166 165 167 165 178 181 183 188 192 169 158 151 168 174 184 175 164 159 185 106 97 71 72 8 352 7 355 3 63 224 247 249 197 199 211 155
175 174 178 177 177 177 172 165 166 170 172 183 183 192 203 193 163 159 160 182 174 182 182 174 170 191 180 130 123 93 93 54 28 351 341 344 345 341 345 339 296 214 156
171 170 173 175 176 175 171 167 170 174 179 187 186 190 199 195 179 179 177 196 185 181 177 174 165 191 169 158 162 181 317 43 41 322 325 351 344 360 360 345 334 340 253
168 168 171 173 176 175 173 172 173 177 183 187 189 186 189 196 198 202 199 200 211 178 159 157 166 189 190 191 172 222 204 177 217 270 316 317 305 348 331 325 336 325 312
167 167 168 172 175 176 176 176 174 180 186 188 185 188 193 207 209 180 201 205 190 155 153 160 172 184 195 202 176 229 240 170 208 252 218 232 281 256 276 313 321 316 318
167 166 168 173 175 179 179 177 178 182 186 187 188 193 195 200 203 190 199 211 182 160 155 168 178 186 186 191 207 233 212 203 221 238 250 249 292 309 279 263 278 284 291
169 167 168 171 174 178 178 180 180 183 188 193 194 193 188 194 197 200 202 198 182 167 171 180 186 191 192 192 199 232 228 206 221 238 231 217 237 279 310 299 272 257 258
166 165 167 170 175 178 180 182 185 188 190 193 191 194 191 191 195 200 198 191 190 186 185 191 194 202 202 197 198 217 231 218 218 227 236 233 234 218 236 268 280 273 259
160 160 163 170 176 179 182 185 190 193 193 193 193 194 199 199 199 199 195 192 191 195 196 196 201 208 210 201 203 211 229 234 229 227 228 229 235 238 233 240 256 269 272
147 153 158 166 174 178 179 183 189 192 195 194 194 196 199 201 201 200 196 193 193 199 206 201 202 206 213 212 209 211 218 229 236 236 235 234 231 232 229 239 240 247 260
133 137 144 153 164 170 176 181 184 186 192 191 194 197 197 198 200 202 200 197 197 204 207 209 207 209 213 218 213 214 220 219 229 236 237 239 236 236 233 240 239 242 243
110 110 116 124 135 157 167 169 175 177 175 181 187 189 190 193 198 201 200 197 199 205 202 209 214 216 224 222 214 209 227 225 226 232 235 241 240 234 230 235 239 240 246
75 68 59 59 79 121 140 147 152 149 150 163 175 178 180 188 193 200 199 201 199 203 213 212 217 219 226 224 208 210 221 242 251 252 250 254 255 241 230 229 233 240 241
64 63 66 65 57 58 71 71 74 83 97 116 119 130 168 194 193 190 189 194 196 206 216 226 232 235 232 215 210 212 223 240 249 254 256 255 258 264 258 247 239 233 236
63 59 61 61 58 58 63 72 63 62 61 59 54 43 39 78 164 184 194 188 190 202 214 227 240 244 247 225 214 208 231 244 250 254 256 256 255 255 255 256 256 253 248
65 61 63 63 57 54 62 67 62 60 56 50 56 52 48 41 41 45 42 11 234 232 241 244 242 247 252 235 216 207 234 249 255 256 255 254 255 261 258 254 255 256 255
72 67 64 61 54 50 55 59 55 51 50 53 55 54 53 52 52 38 17 9 345 304 277 273 269 263 256 246 218 206 226 251 264 270 272 272 278 271 270 262 258 259 262
79 74 69 63 55 53 57 58 51 44 43 43 47 47 44 41 39 37 11 353 343 314 295 285 283 279 281 277 227 210 227 258 272 277 282 292 323 313 293 277 265 265 267
83 80 78 71 63 58 58 57 48 44 46 43 37 33 37 40 29 16 360 342 338 330 329 330 325 325 336 352 10 305 271 269 268 279 290 302 303 300 289 270 263 263 262
84 82 78 73 66 60 61 60 53 48 48 44 33 23 30 33 29 5 360 358 356 1 354 340 335 336 348 14 17 356 327 307 294 297 304 304 290 280 271 272 268 254 250
82 78 77 77 73 65 57 49 41 32 27 20 9 0 12 22 348 332 324 320 332 276 281 316 325 329 331 340 348 337 325 321 317 316 301 292 287 283 278 275 270 263 256
82 78 75 74 73 69 63 51 38 27 16 9 359 352 355 2 349 335 330 289 257 224 223 235 255 288 284 294 306 305 297 292 294 297 288 288 287 288 289 287 287 283 279
Height
1498 1502 1506 1509 1512 1516 1520 1524 1528 1531 1535 1538 1542 1545 1547 1550 1552 1552 1553 1554 1554 1555 1555 1555 1556 1556 1556 1556 1556 1556 1557 1559 1559 1559 1560 1561 1562 1562 1563 1564 1564 1565 1566
1496 1500 1503 1507 1511 1514 1518 1522 1526 1530 1533 1537 1541 1544 1547 1549 1551 1552 1553 1553 1554 1554 1555 1555 1556 1556 1556 1556 1556 1556 1557 1559 1559 1559 1559 1560 1562 1562 1563 1563 1564 1564 1565
1493 1497 1501 1505 1509 1512 1516 1519 1523 1527 1532 1536 1540 1543 1546 1548 1550 1551 1552 1553 1553 1554 1554 1555 1555 1556 1556 1556 1556 1556 1557 1558 1559 1559 1560 1560 1561 1562 1563 1563 1563 1564 1564
1490 1494 1498 1502 1506 1509 1513 1517 1521 1525 1530 1533 1537 1540 1543 1546 1548 1549 1550 1551 1552 1553 1553 1554 1554 1555 1556 1556 1556 1556 1557 1558 1559 1559 1560 1560 1560 1562 1563 1563 1563 1563 1563
1487 1491 1495 1500 1504 1507 1511 1515 1519 1524 1528 1532 1536 1539 1542 1545 1547 1548 1549 1550 1551 1552 1552 1553 1553 1554 1555 1555 1555 1555 1556 1557 1557 1558 1560 1560 1561 1561 1562 1563 1563 1563 1563
1485 1489 1493 1498 1502 1506 1509 1513 1517 1521 1526 1530 1533 1537 1540 1543 1545 1546 1547 1548 1549 1550 1551 1552 1552 1553 1554 1554 1554 1555 1556 1556 1556 1557 1558 1560 1560 1561 1561 1561 1561 1561 1562
1483 1487 1492 1495 1500 1504 1508 1511 1515 1519 1523 1527 1531 1534 1537 1540 1542 1544 1545 1546 1548 1548 1549 1550 1551 1552 1552 1553 1553 1554 1555 1555 1555 1556 1557 1558 1559 1559 1560 1560 1560 1560 1561
1481 1485 1490 1494 1498 1502 1506 1509 1513 1517 1521 1525 1528 1532 1535 1537 1539 1541 1543 1544 1546 1547 1547 1548 1549 1550 1551 1552 1552 1553 1554 1554 1555 1556 1556 1557 1557 1558 1559 1560 1560 1559 1559
1479 1484 1488 1492 1497 1500 1504 1507 1511 1514 1518 1522 1526 1529 1532 1534 1537 1538 1541 1543 1544 1545 1545 1546 1547 1548 1549 1550 1551 1552 1553 1554 1554 1555 1555 1555 1556 1557 1558 1558 1559 1559 1558
1477 1482 1486 1490 1495 1499 1502 1506 1509 1512 1516 1520 1523 1526 1529 1531 1534 1536 1538 1540 1542 1543 1543 1544 1545 1546 1547 1548 1549 1550 1551 1552 1552 1552 1553 1554 1554 1555 1556 1556 1557 1557 1557
1475 1480 1484 1488 1493 1497 1500 1504 1507 1510 1513 1517 1520 1523 1525 1528 1530 1532 1534 1536 1538 1539 1540 1541 1543 1544 1545 1546 1547 1548 1549 1550 1550 1551 1551 1552 1552 1552 1553 1554 1554 1554 1554
1473 1478 1482 1487 1491 1495 1498 1502 1505 1508 1510 1514 1517 1519 1522 1524 1526 1528 1530 1532 1534 1536 1537 1538 1540 1541 1542 1544 1544 1545 1547 1548 1548 1548 1549 1549 1550 1550 1550 1550 1550 1551 1551
1473 1476 1480 1484 1488 1492 1496 1499 1502 1505 1508 1511 1513 1516 1518 1520 1522 1524 1526 1528 1530 1532 1533 1535 1536 1538 1539 1541 1541 1542 1543 1544 1545 1546 1546 1546 1547 1546 1547 1547 1547 1547 1547
1472 1474 1478 1482 1485 1489 1492 1496 1499 1502 1505 1507 1509 1511 1513 1516 1518 1520 1522 1524 1526 1528 1529 1531 1532 1534 1535 1537 1538 1539 1540 1541 1541 1542 1542 1543 1543 1543 1543 1543 1542 1542 1542
1471 1474 1476 1479 1483 1486 1489 1493 1496 1499 1501 1504 1506 1507 1509 1512 1514 1516 1518 1520 1522 1523 1525 1527 1529 1530 1531 1533 1534 1535 1536 1537 1537 1538 1538 1538 1538 1538 1538 1538 1538 1538 1537
1472 1474 1476 1478 1481 1483 1486 1489 1492 1495 1497 1500 1501 1503 1504 1507 1509 1512 1514 1516 1517 1519 1521 1523 1524 1526 1527 1529 1530 1531 1532 1533 1533 1533 1533 1533 1533 1533 1533 1533 1533 1533 1532
1473 1475 1476 1478 1480 1482 1484 1486 1489 1491 1493 1495 1497 1499 1500 1502 1504 1507 1509 1511 1513 1515 1517 1518 1520 1520 1522 1524 1526 1527 1528 1528 1528 1528 1528 1528 1528 1528 1527 1526 1526 1526 1525
1475 1476 1477 1478 1480 1482 1482 1484 1487 1488 1489 1491 1494 1495 1496 1499 1500 1502 1504 1506 1508 1510 1512 1513 1515 1517 1518 1519 1520 1521 1522 1522 1522 1522 1522 1522 1521 1522 1521 1521 1519 1518 1517
1478 1479 1479 1480 1480 1481 1483 1483 1486 1486 1486 1488 1490 1493 1494 1494 1495 1498 1500 1503 1505 1506 1507 1509 1511 1512 1513 1514 1515 1515 1515 1515 1515 1515 1515 1514 1514 1514 1514 1513 1512 1510 1509
1481 1482 1482 1482 1482 1483 1485 1485 1486 1486 1487 1488 1488 1491 1492 1492 1493 1496 1498 1500 1501 1503 1504 1505 1506 1507 1508 1508 1509 1509 1509 1508 1508 1508 1508 1507 1507 1506 1506 1505 1503 1501 1500
1485 1485 1485 1486 1486 1487 1487 1487 1488 1489 1490 1490 1490 1491 1492 1492 1493 1495 1497 1497 1499 1500 1501 1502 1502 1503 1503 1503 1503 1503 1502 1502 1501 1501 1501 1500 1499 1498 1497 1496 1494 1493 1492
1488 1489 1488 1489 1490 1490 1490 1490 1491 1491 1491 1492 1493 1492 1492 1493 1494 1494 1496 1497 1497 1498 1498 1499 1499 1499 1499 1499 1498 1497 1496 1495 1495 1494 1493 1493 1491 1490 1488 1487 1485 1484 1483
1492 1493 1493 1493 1494 1494 1494 1494 1494 1494 1494 1494 1494 1494 1494 1494 1494 1495 1495 1496 1496 1497 1496 1496 1496 1496 1495 1494 1493 1491 1490 1489 1488 1487 1485 1484 1482 1481 1479 1477 1476 1475 1473
1495 1496 1497 1497 1498 1498 1498 1498 1498 1498 1497 1497 1497 1496 1496 1496 1495 1495 1495 1495 1495 1495 1495 1494 1493 1492 1491 1490 1488 1486 1485 1484 1482 1480 1478 1476 1474 1472 1470 1468 1466 1465 1463
1497 1499 1500 1501 1502 1502 1502 1502 1501 1500 1500 1500 1500 1499 1498 1497 1496 1496 1496 1495 1495 1494 1493 1492 1491 1489 1488 1486 1484 1482 1480 1478 1476 1473 1470 1468 1466 1464 1462 1460 1459 1457 1455
1500 1502 1503 1504 1505 1505 1505 1504 1503 1502 1502 1502 1501 1500 1500 1499 1498 1497 1496 1495 1494 1492 1491 1489 1488 1485 1484 1482 1480 1478 1476 1473 1471 1468 1464 1462 1460 1458 1456 1454 1451 1449 1447